{"data":{"norad_id":63856,"intl_designator":"2025-093W","name":"STARLINK-34002","alt_names":[],"object_type":"PAYLOAD","status":"ACTIVE","operator":null,"country":"US","launch_date":"2025-05-07","launch_site_code":"AFETR","launch_vehicle":null,"mission":null,"orbit_class":"UNKNOWN","rcs_meters":null,"size_class":null,"mass_kg":null,"dimensions":null,"purposes":["comms"],"wikipedia_slug":null,"has_3d_model":false,"image_url":null,"decayed_at":null,"tle_current":{"epoch":"2026-09-19T18:29:45.927744Z","epoch_age_seconds":212917,"freshness":"STALE","line1":"1 63856U 25093W   26262.77067046  .00012553  00000+0  46475-3 0  9996","line2":"2 63856  43.0060  61.8763 0000429  88.1862 271.9039 15.27592469 77434","mean_motion":15.27592469,"eccentricity":4.29e-5,"inclination_deg":43.006,"raan_deg":61.8763,"arg_perigee_deg":88.1862,"mean_anomaly_deg":271.9039,"bstar":0.00046475,"rev_number":7743,"period_min":94.265979259682,"perigee_km":482.71741634013,"apogee_km":483.30610290371,"semimajor_km":6861.1487596219,"source":"CELESTRAK","updated_at":"2026-09-21T09:00:35.135077Z"}}}